Location: Hamburg
(53.5500°N, 10.0000°E)
Time: 16:27:51
(UTC+01:00)

Vanguard 1 Rocket - Visible Passes

Search period start: 30 January 2015 00:00
Search period end: 09 February 2015 00:00
Orbit: 655 x 4224 km, 34.3° (Epoch: 26 January)

Date Brightness Start Highest point End Pass type
(mag) Time Alt. Az. Time Alt. Az. Time Alt. Az.
30 Jan 11.3 00:44:19 16° ESE 00:44:19 16° ESE 00:46:46 10° ESE visible
30 Jan 10.5 03:01:37 38° SSE 03:01:37 38° SSE 03:12:08 10° SE visible
30 Jan 10.6 05:18:55 24° WSW 05:23:29 26° SW 05:33:55 10° S visible
30 Jan 11.4 20:35:27 10° SSE 20:39:50 14° SSE 20:39:50 14° SSE visible
30 Jan 11.5 22:54:12 10° SSW 23:37:18 - E 22:57:11 15° SSW visible
31 Jan 10.8 01:54:37 29° SE 01:54:37 29° SE 02:01:29 10° ESE visible
31 Jan 10.5 04:11:55 35° SSW 04:12:00 35° SSW 04:25:04 10° SSE visible
31 Jan 10.9 06:29:14 11° WSW 06:36:43 14° SW 06:42:32 10° SSW visible
31 Jan 11.3 21:43:56 10° SSW 21:50:36 20° S 21:50:36 20° S visible
01 Feb 11.3 00:47:38 16° ESE 00:47:38 16° ESE 00:50:07 10° ESE visible
01 Feb 10.5 03:04:57 37° S 03:04:57 37° S 03:15:17 10° SE visible
01 Feb 10.7 05:22:15 22° WSW 05:26:01 24° SW 05:36:18 10° S visible
01 Feb 11.2 20:35:25 10° S 20:44:02 19° SSE 20:44:02 19° SSE visible
01 Feb 11.4 22:56:13 10° SW 23:40:42 - E 23:01:23 20° SSW visible
02 Feb 10.9 01:58:00 28° SE 01:58:00 28° SE 02:04:42 10° ESE visible
02 Feb 10.6 04:15:19 32° SSW 04:15:19 32° SSW 04:27:51 10° SSE visible
02 Feb 11.0 06:33:56 10° WSW 06:39:06 11° WSW 06:42:03 10° SW visible
02 Feb 11.4 19:30:27 10° SE 19:37:30 13° SE 19:37:30 13° SE visible
02 Feb 11.1 21:45:35 10° SSW 21:54:51 26° S 21:54:51 26° S visible
03 Feb 11.3 00:10:30 10° SW 00:51:07 15° ESE 00:53:23 10° ESE visible
03 Feb 10.6 03:08:26 34° S 03:08:26 34° S 03:18:16 10° SE visible
03 Feb 10.8 05:25:44 20° WSW 05:28:27 20° SW 05:38:14 10° S visible
03 Feb 11.1 20:36:21 10° S 20:48:18 25° SSE 20:48:18 25° SSE visible
03 Feb 11.2 22:58:32 10° SW 23:44:15 - E 23:05:38 24° SSW visible
04 Feb 10.9 02:01:35 26° SE 02:01:35 26° SE 02:07:47 10° SE visible
04 Feb 10.7 04:18:54 29° SSW 04:18:54 29° SSW 04:30:21 10° SSE visible
04 Feb 11.2 19:29:22 10° SSE 19:39:47 17° SE 19:41:45 17° SE visible
04 Feb 11.0 21:47:37 10° SSW 21:59:05 31° S 21:59:05 31° S visible
05 Feb 11.4 00:13:09 10° WSW 00:54:46 14° ESE 00:56:30 10° ESE visible
05 Feb 10.7 03:12:06 31° S 03:12:06 31° S 03:21:03 10° SSE visible
05 Feb 11.0 05:29:25 17° SW 05:30:46 17° SW 05:39:30 10° SSW visible
05 Feb 10.9 20:37:55 10° SSW 20:52:31 29° SSE 20:52:31 29° SSE visible
05 Feb 11.1 23:01:05 10° SW 23:48:00 - ESE 23:09:52 29° SW visible
06 Feb 11.0 02:05:20 23° SE 02:05:20 23° SE 02:10:43 10° SE visible
06 Feb 10.8 04:22:40 25° SSW 04:22:40 25° SSW 04:32:30 10° S visible
06 Feb 11.1 19:29:52 10° S 19:42:00 21° SE 19:45:56 20° ESE visible
06 Feb 10.8 21:49:58 10° SW 22:03:17 36° S 22:03:17 36° S visible
07 Feb 11.4 00:15:58 10° WSW 00:58:37 12° ESE 00:59:30 10° ESE visible
07 Feb 10.9 03:15:58 26° S 03:15:58 26° S 03:23:35 10° SSE visible
07 Feb 11.1 05:33:18 13° SW 05:33:18 13° SW 05:39:36 10° SW visible
07 Feb 11.3 18:25:42 10° SE 18:30:43 12° SE 18:38:51 10° ESE visible
07 Feb 10.8 20:39:56 10° SSW 20:56:21 33° SSE 20:56:39 33° SSE visible
07 Feb 11.0 23:03:50 10° WSW 23:51:57 - ESE 23:13:59 32° SW visible
08 Feb 11.2 02:09:17 20° SSE 02:09:17 20° SSE 02:13:28 10° SE visible
08 Feb 11.0 04:26:38 20° SSW 04:26:38 20° SSW 04:34:11 10° S visible
08 Feb 11.0 19:31:12 10° S 19:44:15 25° SE 19:49:58 23° ESE visible
08 Feb 10.7 21:52:36 10° SW 22:07:19 40° S 22:07:19 40° S visible
